Flag for Greenland Weather past 2 weeks in Ittoqqortoormiit, Greenland

Now
2 °F

Light snow. Passing clouds.


Feels Like: -6 °F
Forecast: -18 / -4 °F
Wind: 3 mph from Northeast

Location: Scoresbysund

Current Time: Jan 30, 2015 at 9:15:13 AM

Latest Report: Jan 30, 2015 at 8:00 AM


Visibility: 25 mi

Pressure: 30.03 "Hg

Humidity: 78%

Dew point: -3 °F

Location of IttoqqortoormiitLocation

Historic Weather in Ittoqqortoormiit — Graph

°F

Ittoqqortoormiit temperature yesterday

Maximum temperature yesterday: 23 °F (at 1:00 AM)
Minimum temperature yesterday: 11 °F (at 11:00 PM)
Average temperature yesterday: 18 °F

Past Weeks' High & Low Weather Summary

 TemperatureHumidityPressure
High30 °F (Jan 28, 4:00 AM)100% (Jan 27, 8:00 PM)30.35 "Hg (Jan 27, 8:00 PM)
Low2 °F (Jan 30, 8:00 AM)34% (Jan 18, 9:00 AM)29.06 "Hg (Jan 23, 4:00 AM)
Average14 °F76%29.57 "Hg
* Reported Jan 15 8:00 AM — Jan 30 8:00 AM, Ittoqqortoormiit, Weather by CustomWeather, © 2014

Note: Actual official high and low records may vary slightly from our data, if they occured in-between our weather recording intervals... More about our weather records

Advertising

Ittoqqortoormiit weather history for previous 24 hours

 ConditionsComfort  
Time TempWeatherWind HumidityBarometerVisibility
8:00 AM
Jan 30
2 °FLight snow. Passing clouds.3 mph78%30.03 "Hg25 mi
7:00 AM4 °FClear.2 mph77%30.02 "Hg31 mi
6:00 AM5 °FClear.2 mph75%30.01 "Hg31 mi
5:00 AM4 °FClear.6 mph72%30.01 "Hg31 mi
4:00 AM5 °FClear.3 mph72%30.00 "Hg31 mi
3:00 AM7 °FClear.2 mph69%30.01 "Hg31 mi
1:00 AM10 °FClear.5 mph61%30.01 "Hg31 mi
12:00 AM11 °FClear.8 mph60%30.01 "Hg31 mi
11:00 PM
Jan 29
11 °FClear.9 mph59%30.02 "Hg31 mi
10:00 PM12 °FClear.9 mph59%30.03 "Hg31 mi
9:00 PM13 °FClear.7 mph59%30.04 "Hg31 mi
8:00 PM13 °FClear.8 mph62%30.05 "Hg31 mi
7:00 PM12 °FClear.9 mph62%30.05 "Hg31 mi
6:00 PM12 °FClear.10 mph63%30.05 "Hg31 mi
5:00 PM14 °FClear.13 mph61%30.05 "Hg31 mi
4:00 PM14 °FClear.14 mph60%30.04 "Hg31 mi
3:00 PM15 °FClear.12 mph59%30.05 "Hg31 mi
2:00 PM16 °FSunny.9 mph62%30.05 "Hg31 mi
1:00 PM18 °FPassing clouds.6 mph57%30.05 "Hg31 mi
12:00 PM21 °FOvercast.9 mph52%30.05 "Hg31 mi
11:00 AM19 °FPartly sunny.7 mph53%30.05 "Hg31 mi
10:00 AM17 °FClear.5 mph57%30.05 "Hg31 mi
9:00 AM20 °FClear.8 mph51%30.05 "Hg31 mi
Weather by CustomWeather, © 2014

See weather overviewHow to use our weather pages